Regional Weather Roundup
Issued by NWS

Home | Current Version | Previous Version | Graphics & Text | Print | Product List | Glossary Off
Versions: 1 2 3 4 5 6 7 8 9 10 11 12 13 14 15 16 17 18 19 20 21 22 23 24 25 26 27 28 29 30 31 32 33 34 35 36 37 38 39 40 41 42 43 44 45 46 47 48 49 50

000
ASUS43 KMKX 261211
RWRWI

WISCONSIN REGIONAL WEATHER ROUNDUP
NATIONAL WEATHER SERVICE MILWAUKEE/SULLIVAN WI
700 AM CDT SUN APR 26 2015

NOTE: "FAIR" INDICATES FEW OR NO CLOUDS BELOW 12,000 FEET WITH NO
SIGNIFICANT WEATHER AND/OR OBSTRUCTIONS TO VISIBILITY.

WIZ001-002-006>008-014>016-023>028-261300-
NORTHWEST WISCONSIN

CITY           SKY/WX    TMP DP  RH WIND       PRES   REMARKS
SUPERIOR ARPT  FAIR      25  24  94 CALM      30.14R
6HR MIN TEMP:  20; 6HR MAX TEMP:  33;

ASHLAND        CLEAR     27  25  92 W3        30.13R
6HR MIN TEMP:  21; 6HR MAX TEMP:  28;

HAYWARD        CLEAR     27  23  85 N6        30.09R WCI  20
6HR MIN TEMP:  25; 6HR MAX TEMP:  32;

SIREN          CLEAR     27  22  84 CALM      30.10R
6HR MIN TEMP:  25; 6HR MAX TEMP:  35;

CUMBERLAND     CLEAR     32  23  69 NE5       30.08R WCI  27
RICE LAKE      CLEAR     32  23  69 N3        30.10R
6HR MIN TEMP:  29; 6HR MAX TEMP:  36;

CHETEK         CLEAR     35  22  61 NE3       30.09R
6HR MIN TEMP:  30; 6HR MAX TEMP:  41;

LADYSMITH      CLEAR     30  24  78 N3        30.09R
6HR MIN TEMP:  29; 6HR MAX TEMP:  37;

EAU CLAIRE     CLEAR     32  25  75 NE3       30.07R
6HR MIN TEMP:  29; 6HR MAX TEMP:  40;

MENOMONIE      CLEAR     32  25  73 CALM      30.07R
6HR MIN TEMP:  32; 6HR MAX TEMP:  41;

NEW RICHMOND   CLEAR     32  24  72 CALM      30.07R
6HR MIN TEMP:  29; 6HR MAX TEMP:  38;

OSCEOLA        CLEAR     30  23  74 CALM      30.11R
6HR MIN TEMP:  28; 6HR MAX TEMP:  38;

$$

WIZ003>005-009-010-017-018-261300-
NORTH CENTRAL WISCONSIN

CITY           SKY/WX    TMP DP  RH WIND       PRES   REMARKS
MANITOWISH WTR SUNNY     25  24  97 CALM      30.08R
6HR MIN TEMP:  22; 6HR MAX TEMP:  29;

ARBOR VITAE    SUNNY     27  21  79 CALM      30.06R
6HR MIN TEMP:  24; 6HR MAX TEMP:  32;

WOODRUFF       SUNNY     27  21  79 CALM      30.06R
6HR MIN TEMP:  24; 6HR MAX TEMP:  32;

RHINELANDER    SUNNY     30  21  69 N3        30.06R
6HR MIN TEMP:  26; 6HR MAX TEMP:  33;

EAGLE RIVER    SUNNY     29  20  67 CALM      30.06R
6HR MIN TEMP:  23; 6HR MAX TEMP:  29;

LAND O LAKES   SUNNY     27  23  84 CALM      30.07R
6HR MIN TEMP:  22; 6HR MAX TEMP:  31;

PHILLIPS       CLEAR     27  20  77 CALM      30.08R
6HR MIN TEMP:  25; 6HR MAX TEMP:  32;

TOMAHAWK       SUNNY     28  22  78 CALM      30.07R
6HR MIN TEMP:  24; 6HR MAX TEMP:  33;

MEDFORD        CLEAR     30  23  73 NE5       30.06R WCI  25
6HR MIN TEMP:  28; 6HR MAX TEMP:  34;

MERRILL        SUNNY     29  23  78 CALM      30.07R
6HR MIN TEMP:  25; 6HR MAX TEMP:  32;

$$

WIZ029-030-035-036-043>047-261300-
CENTRAL WISCONSIN

CITY           SKY/WX    TMP DP  RH WIND       PRES   REMARKS
WAUSAU         SUNNY     33  22  63 NW5       30.05R WCI  29
6HR MIN TEMP:  32; 6HR MAX TEMP:  37;

MOSINEE        SUNNY     32  19  59 N5        30.05R WCI  27
MARSHFIELD     CLEAR     35  21  56 NE9       30.05R WCI  28
6HR MIN TEMP:  32; 6HR MAX TEMP:  38;

STEVENS POINT  SUNNY     28  21  76 CALM      30.05S
6HR MIN TEMP:  23; 6HR MAX TEMP:  32;

WAUPACA        SUNNY     33  22  63 N3        30.05R
6HR MIN TEMP:  29; 6HR MAX TEMP:  38;

WAUTOMA        SUNNY     34  21  59 NE7       30.05R WCI  28
6HR MIN TEMP:  32; 6HR MAX TEMP:  38;

WISC RAPIDS    CLEAR     35  20  54 NE7       30.06R WCI  29
6HR MIN TEMP:  31; 6HR MAX TEMP:  39;

CAMP DOUGLAS   CLEAR     26  25  99 CALM      30.05R
6HR MIN TEMP:  21; 6HR MAX TEMP:  27;

$$

WIZ011>013-019>022-031-037>040-048>050-261300-
NORTHEAST WISCONSIN

CITY           SKY/WX    TMP DP  RH WIND       PRES   REMARKS
ANTIGO         SUNNY     31  23  73 N6        30.05R WCI  25
SHAWANO        SUNNY     36  20  53 CALM      30.06R
OCONTO         SUNNY     34  21  59 N5        30.04S WCI  30
6HR MIN TEMP:  28; 6HR MAX TEMP:  34;

STURGEON BAY   SUNNY     36  25  64 N8        30.06R WCI  29
6HR MIN TEMP:  32; 6HR MAX TEMP:  36;

GREEN BAY      SUNNY     35  22  58 N7        30.04R WCI  29
6HR MIN TEMP:  31; 6HR MAX TEMP:  40;

MANITOWOC      SUNNY     35  28  75 N10       30.02S WCI  27
6HR MIN TEMP:  32; 6HR MAX TEMP:  40;

APPLETON       SUNNY     32  19  59 N8        30.04R WCI  25
CLINTONVILLE   SUNNY     32  21  64 CALM      30.05R
OSHKOSH        SUNNY     34  23  64 N8        30.04R WCI  27
6HR MIN TEMP:  30; 6HR MAX TEMP:  42;

$$

WIZ032>034-041-042-053>061-261300-
SOUTHWEST WISCONSIN

CITY           SKY/WX    TMP DP  RH WIND       PRES   REMARKS
LA CROSSE      CLEAR     35  26  69 CALM      30.05R
6HR MIN TEMP:  29; 6HR MAX TEMP:  41;

SPARTA         CLEAR     26  21  81 CALM      30.06R
6HR MIN TEMP:  22; 6HR MAX TEMP:  28;

VIROQUA        CLEAR     34  23  63 NE5       30.02R WCI  30
6HR MIN TEMP:  32; 6HR MAX TEMP:  36;

BOSCOBEL       CLEAR     28  24  85 CALM      30.04R
6HR MIN TEMP:  25; 6HR MAX TEMP:  32;

PRAIRIE DU CHI FAIR      30  24  79 CALM      30.03R
6HR MIN TEMP:  29; 6HR MAX TEMP:  35;

PLATTEVILLE    CLEAR     35  26  67 NE10      30.00R WCI  28
6HR MIN TEMP:  31; 6HR MAX TEMP:  38;

$$

WIZ056-057-062-063-064-067-068-261300-
SOUTH CENTRAL WISCONSIN

CITY           SKY/WX    TMP DP  RH WIND       PRES   REMARKS
REEDSBURG      CLEAR     32  22  68 CALM      30.04R
6HR MIN TEMP:  27; 6HR MAX TEMP:  38;

BARABOO/DELLS  CLEAR     32  22  67 NE5       30.04R WCI  28
6HR MIN TEMP:  28; 6HR MAX TEMP:  37;

LONE ROCK      CLEAR     29  25  85 CALM      30.04R
6HR MIN TEMP:  27; 6HR MAX TEMP:  33;

MINERAL POINT  CLEAR     36  27  69 NE12      30.00R WCI  27
MADISON        MOSUNNY   35  27  72 NE7       30.02R WCI  29
6HR MIN TEMP:  31; 6HR MAX TEMP:  35;

MIDDLETON      CLEAR     35  26  70 N3        30.02R
6HR MIN TEMP:  31; 6HR MAX TEMP:  37;

WATERTOWN      SUNNY     34  28  79 NE6       30.01R WCI  29
6HR MIN TEMP:  31; 6HR MAX TEMP:  35;

MONROE         CLEAR     34  28  80 N8        29.99R WCI  27
JANESVILLE     SUNNY     37  27  65 NE9       29.99R WCI  31
$$

WIZ051-052-058>065-066-070>072-261300-
SOUTHEAST WISCONSIN

CITY           SKY/WX    TMP DP  RH WIND       PRES   REMARKS
MILWAUKEE      MOSUNNY   38  31  76 N12       30.01R WCI  30
6HR MIN TEMP:  35; 6HR MAX TEMP:  39;

WAUKESHA       NOT AVBL
MILWAUKEE/TIMM SUNNY     34  28  80 N3        30.02R
RACINE         SUNNY     38  33  82 N13       30.01R WCI  30
6HR MIN TEMP:  35; 6HR MAX TEMP:  38;

BURLINGTON     SUNNY     33  28  83 N3        29.99R
6HR MIN TEMP:  26; 6HR MAX TEMP:  34;

KENOSHA        SUNNY     36  32  85 N7        29.99R WCI  30
6HR MIN TEMP:  32; 6HR MAX TEMP:  37;

FOND DU LAC    SUNNY     37  28  70 N5        30.03R WCI  33
6HR MIN TEMP:  35; 6HR MAX TEMP:  41;

SHEBOYGAN      SUNNY     36  25  64 N7        30.01R WCI  30
6HR MIN TEMP:  32; 6HR MAX TEMP:  39;

WEST BEND      SUNNY     34  25  69 N5        30.02R WCI  30
JUNEAU         SUNNY     34  26  71 N6        30.03R WCI  29
6HR MIN TEMP:  32; 6HR MAX TEMP:  37;

$$

LSZ147-162-261300-
LAKE SUPERIOR

STATION/POSITION TIME  TEMP    WIND        PRES    WAVE
                       AIR SEA DIR/SP/G            HT/PER
                 (UTC) (F)     (DEG/KT/KT) (MB)    (FT/S)
W MID LAKE BUOY  1150   36 34   30/ 10/ 12 1021.6R   1/ 3
DEVILS ISLAND    1200   37     330/  3/  4 1021.4R
PORT WING        1100   25     140/  3/  5 1020.0
SAXON HARBOR     1100   25        CALM     1019.6
$$

LMZ867-665-643>646-261300-
LAKE MICHIGAN

STATION/POSITION TIME  TEMP    WIND        PRES    WAVE
                       AIR SEA DIR/SP/G            HT/PER



USA.gov is the U.S. government's official web portal to all federal, state and local government web resources and services.